"datetime","temp","dp","rain_mm","uv","mb"
"2021-04-27 00:00:00",2.4,0.3,0.0,0.0,1014.3
"2021-04-27 00:01:00",2.4,0.3,0.0,0.0,1014.4
"2021-04-27 00:02:00",2.4,0.3,0.0,0.0,1014.4
"2021-04-27 00:03:00",2.4,0.5,0.0,0.0,1014.3
"2021-04-27 00:04:00",2.4,0.5,0.0,0.0,1014.3
"2021-04-27 00:05:00",2.4,0.5,0.0,0.0,1014.3
"2021-04-27 00:06:00",2.4,0.5,0.0,0.0,1014.4
"2021-04-27 00:07:00",2.4,0.3,0.0,0.0,1014.3
"2021-04-27 00:08:00",2.5,0.4,0.0,0.0,1014.3
"2021-04-27 00:09:00",2.4,0.3,0.0,0.0,1014.3
"2021-04-27 00:10:00",2.4,0.3,0.0,0.0,1014.3
"2021-04-27 00:11:00",2.3,0.2,0.0,0.0,1014.3
"2021-04-27 00:12:00",2.3,0.2,0.0,0.0,1014.3
"2021-04-27 00:13:00",2.3,0.4,0.0,0.0,1014.2
"2021-04-27 00:14:00",2.3,0.4,0.0,0.0,1014.3
"2021-04-27 00:15:00",2.2,0.3,0.0,0.0,1014.3
"2021-04-27 00:16:00",2.2,0.1,0.0,0.0,1014.3
"2021-04-27 00:17:00",2.1,0.2,0.0,0.0,1014.3
"2021-04-27 00:18:00",2.2,0.3,0.0,0.0,1014.3
"2021-04-27 00:19:00",2.2,0.3,0.0,0.0,1014.3
"2021-04-27 00:20:00",2.2,0.3,0.0,0.0,1014.3
"2021-04-27 00:21:00",2.2,0.3,0.0,0.0,1014.3
"2021-04-27 00:22:00",2.2,0.3,0.0,0.0,1014.3
"2021-04-27 00:23:00",2.1,0.2,0.0,0.0,1014.3
"2021-04-27 00:24:00",2.1,0.2,0.0,0.0,1014.3
"2021-04-27 00:25:00",2.1,0.3,0.0,0.0,1014.3
"2021-04-27 00:26:00",2.1,0.2,0.0,0.0,1014.3
"2021-04-27 00:27:00",2.2,0.3,0.0,0.0,1014.3
"2021-04-27 00:28:00",2.2,0.3,0.0,0.0,1014.3
"2021-04-27 00:29:00",2.2,0.3,0.0,0.0,1014.3
"2021-04-27 00:30:00",2.1,0.2,0.0,0.0,1014.3
"2021-04-27 00:31:00",2.1,0.2,0.0,0.0,1014.3
"2021-04-27 00:32:00",2.1,0.2,0.0,0.0,1014.3
"2021-04-27 00:33:00",2.1,0.2,0.0,0.0,1014.2
"2021-04-27 00:34:00",2.1,0.2,0.0,0.0,1014.3
"2021-04-27 00:35:00",2.1,0.2,0.0,0.0,1014.2
"2021-04-27 00:36:00",2.1,0.2,0.0,0.0,1014.2
"2021-04-27 00:37:00",2.2,0.4,0.0,0.0,1014.2
"2021-04-27 00:38:00",2.1,0.2,0.0,0.0,1014.2
"2021-04-27 00:39:00",2.1,0.2,0.0,0.0,1014.2
"2021-04-27 00:40:00",2.1,0.2,0.0,0.0,1014.2
"2021-04-27 00:41:00",2.0,0.1,0.0,0.0,1014.1
"2021-04-27 00:42:00",1.9,0.1,0.0,0.0,1014.1
"2021-04-27 00:43:00",1.9,0.1,0.0,0.0,1014.1
"2021-04-27 00:44:00",1.9,0.1,0.0,0.0,1014.1
"2021-04-27 00:45:00",1.9,0.1,0.0,0.0,1014.1
"2021-04-27 00:46:00",1.9,0.1,0.0,0.0,1014.1
"2021-04-27 00:47:00",1.9,0.1,0.0,0.0,1014.2
"2021-04-27 00:48:00",1.9,0.3,0.0,0.0,1014.1
"2021-04-27 00:49:00",1.9,0.1,0.0,0.0,1014.1
"2021-04-27 00:50:00",1.9,0.1,0.0,0.0,1014.1
"2021-04-27 00:51:00",1.9,0.1,0.0,0.0,1014.1
"2021-04-27 00:52:00",1.9,0.1,0.0,0.0,1014.1
"2021-04-27 00:53:00",1.9,0.1,0.0,0.0,1014.1
"2021-04-27 00:54:00",1.8,0.0,0.0,0.0,1014.0
"2021-04-27 00:55:00",1.8,0.0,0.0,0.0,1014.0
"2021-04-27 00:56:00",1.8,0.2,0.0,0.0,1014.0
"2021-04-27 00:57:00",1.9,0.3,0.0,0.0,1014.0
"2021-04-27 00:58:00",1.9,0.3,0.0,0.0,1014.0
"2021-04-27 00:59:00",2.0,0.2,0.0,0.0,1014.0
"2021-04-27 01:00:00",2.0,0.2,0.0,0.0,1014.0
"2021-04-27 01:01:00",2.0,0.2,0.0,0.0,1014.0
"2021-04-27 01:02:00",2.1,0.3,0.0,0.0,1014.0
"2021-04-27 01:03:00",2.0,0.2,0.0,0.0,1014.0
"2021-04-27 01:04:00",1.9,0.1,0.0,0.0,1014.0
"2021-04-27 01:05:00",1.8,0.0,0.0,0.0,1014.0
"2021-04-27 01:06:00",1.8,0.0,0.0,0.0,1014.0
"2021-04-27 01:07:00",1.8,0.0,0.0,0.0,1014.0
"2021-04-27 01:08:00",1.8,0.0,0.0,0.0,1014.0
"2021-04-27 01:09:00",1.8,0.0,0.0,0.0,1013.9
"2021-04-27 01:10:00",1.8,0.0,0.0,0.0,1014.0
"2021-04-27 01:11:00",1.7,"-0.1",0.0,0.0,1014.0
"2021-04-27 01:12:00",1.7,"-0.1",0.0,0.0,1013.9
"2021-04-27 01:13:00",1.6,"-0.2",0.0,0.0,1014.0
"2021-04-27 01:14:00",1.6,"-0.2",0.0,0.0,1013.9
"2021-04-27 01:15:00",1.5,"-0.3",0.0,0.0,1013.9
"2021-04-27 01:16:00",1.5,"-0.1",0.0,0.0,1013.9
"2021-04-27 01:17:00",1.5,"-0.1",0.0,0.0,1013.9
"2021-04-27 01:18:00",1.4,"-0.2",0.0,0.0,1013.9
"2021-04-27 01:19:00",1.5,"-0.1",0.0,0.0,1013.8
"2021-04-27 01:20:00",1.4,"-0.2",0.0,0.0,1013.8
"2021-04-27 01:21:00",1.4,"-0.2",0.0,0.0,1013.9
"2021-04-27 01:22:00",1.3,"-0.3",0.0,0.0,1013.8
"2021-04-27 01:23:00",1.4,"-0.2",0.0,0.0,1013.8
"2021-04-27 01:24:00",1.3,"-0.3",0.0,0.0,1013.8
"2021-04-27 01:25:00",1.3,"-0.3",0.0,0.0,1013.8
"2021-04-27 01:26:00",1.3,"-0.2",0.0,0.0,1013.7
"2021-04-27 01:27:00",1.3,"-0.2",0.0,0.0,1013.7
"2021-04-27 01:28:00",1.3,"-0.2",0.0,0.0,1013.7
"2021-04-27 01:29:00",1.4,"-0.1",0.0,0.0,1013.7
"2021-04-27 01:30:00",1.4,"-0.1",0.0,0.0,1013.7
"2021-04-27 01:31:00",1.4,"-0.1",0.0,0.0,1013.7
"2021-04-27 01:32:00",1.3,"-0.3",0.0,0.0,1013.6
"2021-04-27 01:33:00",1.3,"-0.3",0.0,0.0,1013.7
"2021-04-27 01:34:00",1.3,"-0.3",0.0,0.0,1013.6
"2021-04-27 01:35:00",1.2,"-0.4",0.0,0.0,1013.6
"2021-04-27 01:36:00",1.2,"-0.4",0.0,0.0,1013.5
"2021-04-27 01:37:00",1.2,"-0.4",0.0,0.0,1013.5
"2021-04-27 01:38:00",1.1,"-0.5",0.0,0.0,1013.5
"2021-04-27 01:39:00",1.1,"-0.4",0.0,0.0,1013.5
"2021-04-27 01:40:00",1.1,"-0.4",0.0,0.0,1013.5
"2021-04-27 01:41:00",1.1,"-0.4",0.0,0.0,1013.5
"2021-04-27 01:42:00",1.1,"-0.4",0.0,0.0,1013.5
"2021-04-27 01:43:00",1.1,"-0.4",0.0,0.0,1013.5
"2021-04-27 01:44:00",1.0,"-0.5",0.0,0.0,1013.5
"2021-04-27 01:45:00",0.9,"-0.7",0.0,0.0,1013.5
"2021-04-27 01:46:00",0.9,"-0.6",0.0,0.0,1013.5
"2021-04-27 01:47:00",0.9,"-0.6",0.0,0.0,1013.5
"2021-04-27 01:48:00",0.9,"-0.6",0.0,0.0,1013.4
"2021-04-27 01:49:00",0.8,"-0.7",0.0,0.0,1013.4
"2021-04-27 01:50:00",0.9,"-0.6",0.0,0.0,1013.4
"2021-04-27 01:51:00",0.9,"-0.6",0.0,0.0,1013.4
"2021-04-27 01:52:00",0.9,"-0.4",0.0,0.0,1013.4
"2021-04-27 01:53:00",0.9,"-0.6",0.0,0.0,1013.3
"2021-04-27 01:54:00",0.9,"-0.6",0.0,0.0,1013.4
"2021-04-27 01:55:00",0.8,"-0.7",0.0,0.0,1013.4
"2021-04-27 01:56:00",0.8,"-0.7",0.0,0.0,1013.4
"2021-04-27 01:57:00",0.8,"-0.7",0.0,0.0,1013.4
"2021-04-27 01:58:00",0.7,"-0.8",0.0,0.0,1013.4
"2021-04-27 01:59:00",0.7,"-0.8",0.0,0.0,1013.4
"2021-04-27 02:00:00",0.6,"-0.9",0.0,0.0,1013.4
"2021-04-27 02:01:00",0.6,"-0.9",0.0,0.0,1013.4
"2021-04-27 02:02:00",0.6,"-0.9",0.0,0.0,1013.4
"2021-04-27 02:03:00",0.6,"-0.9",0.0,0.0,1013.4
"2021-04-27 02:04:00",0.5,"-1.0",0.0,0.0,1013.4
"2021-04-27 02:05:00",0.6,"-0.7",0.0,0.0,1013.4
"2021-04-27 02:06:00",0.6,"-0.7",0.0,0.0,1013.3
"2021-04-27 02:07:00",0.6,"-0.7",0.0,0.0,1013.3
"2021-04-27 02:08:00",0.5,"-1.0",0.0,0.0,1013.2
"2021-04-27 02:09:00",0.4,"-1.0",0.0,0.0,1013.3
"2021-04-27 02:10:00",0.4,"-0.9",0.0,0.0,1013.3
"2021-04-27 02:11:00",0.5,"-0.8",0.0,0.0,1013.3
"2021-04-27 02:12:00",0.4,"-0.9",0.0,0.0,1013.3
"2021-04-27 02:13:00",0.4,"-1.0",0.0,0.0,1013.3
"2021-04-27 02:14:00",0.3,"-1.1",0.0,0.0,1013.3
"2021-04-27 02:15:00",0.4,"-0.9",0.0,0.0,1013.3
"2021-04-27 02:16:00",0.4,"-0.9",0.0,0.0,1013.2
"2021-04-27 02:17:00",0.4,"-0.9",0.0,0.0,1013.2
"2021-04-27 02:18:00",0.4,"-0.9",0.0,0.0,1013.2
"2021-04-27 02:19:00",0.3,"-1.0",0.0,0.0,1013.2
"2021-04-27 02:20:00",0.3,"-1.0",0.0,0.0,1013.2
"2021-04-27 02:21:00",0.3,"-1.0",0.0,0.0,1013.2
"2021-04-27 02:22:00",0.3,"-1.0",0.0,0.0,1013.2
"2021-04-27 02:23:00",0.2,"-1.1",0.0,0.0,1013.1
"2021-04-27 02:24:00",0.2,"-1.1",0.0,0.0,1013.1
"2021-04-27 02:25:00",0.2,"-1.1",0.0,0.0,1013.1
"2021-04-27 02:26:00",0.2,"-1.1",0.0,0.0,1013.1
"2021-04-27 02:27:00",0.2,"-1.1",0.0,0.0,1013.1
"2021-04-27 02:28:00",0.2,"-1.1",0.0,0.0,1013.1
"2021-04-27 02:29:00",0.2,"-0.9",0.0,0.0,1013.1
"2021-04-27 02:30:00",0.2,"-0.9",0.0,0.0,1013.1
"2021-04-27 02:31:00",0.2,"-0.9",0.0,0.0,1013.1
"2021-04-27 02:32:00",0.2,"-1.1",0.0,0.0,1013.0
"2021-04-27 02:33:00",0.1,"-1.2",0.0,0.0,1013.1
"2021-04-27 02:34:00",0.1,"-1.2",0.0,0.0,1013.1
"2021-04-27 02:35:00",0.0,"-1.3",0.0,0.0,1013.1
"2021-04-27 02:36:00",0.0,"-1.3",0.0,0.0,1013.0
"2021-04-27 02:37:00","-0.1","-1.4",0.0,0.0,1013.0
"2021-04-27 02:38:00",0.0,"-1.1",0.0,0.0,1013.0
"2021-04-27 02:39:00",0.0,"-1.3",0.0,0.0,1013.0
"2021-04-27 02:40:00","-0.1","-1.2",0.0,0.0,1013.0
"2021-04-27 02:41:00","-0.1","-1.2",0.0,0.0,1013.0
"2021-04-27 02:42:00","-0.1","-1.2",0.0,0.0,1013.0
"2021-04-27 02:43:00","-0.1","-1.2",0.0,0.0,1013.0
"2021-04-27 02:44:00","-0.1","-1.2",0.0,0.0,1013.0
"2021-04-27 02:45:00","-0.2","-1.5",0.0,0.0,1013.0
"2021-04-27 02:46:00","-0.2","-1.5",0.0,0.0,1012.9
"2021-04-27 02:47:00","-0.2","-1.5",0.0,0.0,1012.9
"2021-04-27 02:48:00","-0.2","-1.5",0.0,0.0,1012.9
"2021-04-27 02:49:00","-0.2","-1.5",0.0,0.0,1012.9
"2021-04-27 02:50:00","-0.2","-1.3",0.0,0.0,1012.9
"2021-04-27 02:51:00","-0.2","-1.3",0.0,0.0,1012.9
"2021-04-27 02:52:00","-0.1","-1.2",0.0,0.0,1012.9
"2021-04-27 02:53:00","-0.1","-1.2",0.0,0.0,1012.9
"2021-04-27 02:54:00","-0.1","-1.2",0.0,0.0,1012.9
"2021-04-27 02:55:00","-0.2","-1.5",0.0,0.0,1012.9
"2021-04-27 02:56:00","-0.2","-1.5",0.0,0.0,1012.9
"2021-04-27 02:57:00","-0.3","-1.6",0.0,0.0,1012.9
"2021-04-27 02:58:00","-0.3","-1.6",0.0,0.0,1012.9
"2021-04-27 02:59:00","-0.3","-1.6",0.0,0.0,1012.8
"2021-04-27 03:00:00","-0.3","-1.4",0.0,0.0,1012.8
"2021-04-27 03:01:00","-0.3","-1.4",0.0,0.0,1012.8
"2021-04-27 03:02:00","-0.3","-1.4",0.0,0.0,1012.9
"2021-04-27 03:03:00","-0.3","-1.4",0.0,0.0,1012.8
"2021-04-27 03:04:00","-0.3","-1.4",0.0,0.0,1012.8
"2021-04-27 03:05:00","-0.4","-1.5",0.0,0.0,1012.8
"2021-04-27 03:06:00","-0.4","-1.7",0.0,0.0,1012.8
"2021-04-27 03:07:00","-0.5","-1.8",0.0,0.0,1012.8
"2021-04-27 03:08:00","-0.5","-1.8",0.0,0.0,1012.8
"2021-04-27 03:09:00","-0.6","-1.7",0.0,0.0,1012.7
"2021-04-27 03:10:00","-0.5","-1.6",0.0,0.0,1012.8
"2021-04-27 03:11:00","-0.5","-1.6",0.0,0.0,1012.8
"2021-04-27 03:12:00","-0.5","-1.6",0.0,0.0,1012.8
"2021-04-27 03:13:00","-0.5","-1.6",0.0,0.0,1012.8
"2021-04-27 03:14:00","-0.6","-1.7",0.0,0.0,1012.8
"2021-04-27 03:15:00","-0.6","-1.7",0.0,0.0,1012.7
"2021-04-27 03:16:00","-0.6","-1.7",0.0,0.0,1012.7
"2021-04-27 03:17:00","-0.6","-1.7",0.0,0.0,1012.8
"2021-04-27 03:18:00","-0.6","-1.7",0.0,0.0,1012.8
"2021-04-27 03:19:00","-0.6","-1.7",0.0,0.0,1012.7
"2021-04-27 03:20:00","-0.6","-1.7",0.0,0.0,1012.7
"2021-04-27 03:21:00","-0.6","-1.7",0.0,0.0,1012.7
"2021-04-27 03:22:00","-0.6","-1.7",0.0,0.0,1012.7
"2021-04-27 03:23:00","-0.6","-1.7",0.0,0.0,1012.7
"2021-04-27 03:24:00","-0.5","-1.6",0.0,0.0,1012.7
"2021-04-27 03:25:00","-0.5","-1.6",0.0,0.0,1012.7
"2021-04-27 03:26:00","-0.5","-1.6",0.0,0.0,1012.6
"2021-04-27 03:27:00","-0.6","-1.7",0.0,0.0,1012.7
"2021-04-27 03:28:00","-0.6","-1.7",0.0,0.0,1012.6
"2021-04-27 03:29:00","-0.6","-1.7",0.0,0.0,1012.7
"2021-04-27 03:30:00","-0.4","-1.5",0.0,0.0,1012.7
"2021-04-27 03:31:00","-0.4","-1.5",0.0,0.0,1012.6
"2021-04-27 03:32:00","-0.3","-1.3",0.0,0.0,1012.7
"2021-04-27 03:33:00","-0.4","-1.5",0.0,0.0,1012.6
"2021-04-27 03:34:00","-0.5","-1.8",0.0,0.0,1012.6
"2021-04-27 03:35:00","-0.6","-1.9",0.0,0.0,1012.6
"2021-04-27 03:36:00","-0.6","-1.9",0.0,0.0,1012.6
"2021-04-27 03:37:00","-0.6","-1.7",0.0,0.0,1012.7
"2021-04-27 03:38:00","-0.6","-1.7",0.0,0.0,1012.6
"2021-04-27 03:39:00","-0.6","-1.7",0.0,0.0,1012.6
"2021-04-27 03:40:00","-0.6","-1.7",0.0,0.0,1012.6
"2021-04-27 03:41:00","-0.6","-1.7",0.0,0.0,1012.6
"2021-04-27 03:42:00","-0.5","-1.6",0.0,0.0,1012.6
"2021-04-27 03:43:00","-0.4","-1.5",0.0,0.0,1012.6
"2021-04-27 03:44:00","-0.5","-1.6",0.0,0.0,1012.6
"2021-04-27 03:45:00","-0.6","-1.7",0.0,0.0,1012.6
"2021-04-27 03:46:00","-0.7","-1.8",0.0,0.0,1012.6
"2021-04-27 03:47:00","-0.7","-1.8",0.0,0.0,1012.6
"2021-04-27 03:48:00","-0.7","-1.8",0.0,0.0,1012.6
"2021-04-27 03:49:00","-0.7","-1.8",0.0,0.0,1012.6
"2021-04-27 03:50:00","-0.7","-1.8",0.0,0.0,1012.6
"2021-04-27 03:51:00","-0.7","-1.8",0.0,0.0,1012.6
"2021-04-27 03:52:00","-0.7","-1.8",0.0,0.0,1012.6
"2021-04-27 03:53:00","-0.7","-1.8",0.0,0.0,1012.6
"2021-04-27 03:54:00","-0.7","-1.8",0.0,0.0,1012.6
"2021-04-27 03:55:00","-0.6","-1.6",0.0,0.0,1012.6
"2021-04-27 03:56:00","-0.6","-1.6",0.0,0.0,1012.6
"2021-04-27 03:57:00","-0.6","-1.7",0.0,0.0,1012.5
"2021-04-27 03:58:00","-0.6","-1.7",0.0,0.0,1012.5
"2021-04-27 03:59:00","-0.7","-1.8",0.0,0.0,1012.5
"2021-04-27 04:00:00","-0.7","-1.8",0.0,0.0,1012.5
"2021-04-27 04:01:00","-0.8","-1.9",0.0,0.0,1012.5
"2021-04-27 04:02:00","-0.8","-1.9",0.0,0.0,1012.5
"2021-04-27 04:03:00","-0.8","-1.9",0.0,0.0,1012.4
"2021-04-27 04:04:00","-0.8","-1.9",0.0,0.0,1012.5
"2021-04-27 04:05:00","-0.7","-1.7",0.0,0.0,1012.4
"2021-04-27 04:06:00","-0.7","-1.7",0.0,0.0,1012.4
"2021-04-27 04:07:00","-0.7","-1.7",0.0,0.0,1012.4
"2021-04-27 04:08:00","-0.7","-1.7",0.0,0.0,1012.4
"2021-04-27 04:09:00","-0.7","-1.8",0.0,0.0,1012.4
"2021-04-27 04:10:00","-0.7","-1.8",0.0,0.0,1012.4
"2021-04-27 04:11:00","-0.7","-1.8",0.0,0.0,1012.3
"2021-04-27 04:12:00","-0.8","-1.9",0.0,0.0,1012.3
"2021-04-27 04:13:00","-0.8","-1.9",0.0,0.0,1012.3
"2021-04-27 04:14:00","-0.8","-1.9",0.0,0.0,1012.3
"2021-04-27 04:15:00","-0.8","-1.9",0.0,0.0,1012.3
"2021-04-27 04:16:00","-0.8","-1.8",0.0,0.0,1012.2
"2021-04-27 04:17:00","-0.8","-1.9",0.0,0.0,1012.2
"2021-04-27 04:18:00","-0.8","-1.9",0.0,0.0,1012.2
"2021-04-27 04:19:00","-0.8","-1.9",0.0,0.0,1012.2
"2021-04-27 04:20:00","-0.8","-1.9",0.0,0.0,1012.2
"2021-04-27 04:21:00","-0.8","-1.9",0.0,0.0,1012.2
"2021-04-27 04:22:00","-0.8","-1.9",0.0,0.0,1012.2
"2021-04-27 04:23:00","-0.9","-2.0",0.0,0.0,1012.2
"2021-04-27 04:24:00","-0.9","-2.0",0.0,0.0,1012.2
"2021-04-27 04:25:00","-0.9","-2.0",0.0,0.0,1012.1
"2021-04-27 04:26:00","-0.9","-2.0",0.0,0.0,1012.2
"2021-04-27 04:27:00","-0.9","-2.0",0.0,0.0,1012.1
"2021-04-27 04:28:00","-0.8","-1.8",0.0,0.0,1012.1
"2021-04-27 04:29:00","-0.8","-1.8",0.0,0.0,1012.1
"2021-04-27 04:30:00","-0.9","-2.0",0.0,0.0,1012.0
"2021-04-27 04:31:00","-0.8","-1.9",0.0,0.0,1012.0
"2021-04-27 04:32:00","-0.9","-1.9",0.0,0.0,1012.0
"2021-04-27 04:33:00","-0.8","-1.8",0.0,0.0,1012.0
"2021-04-27 04:34:00","-0.8","-1.8",0.0,0.0,1012.0
"2021-04-27 04:35:00","-0.8","-1.8",0.0,0.0,1012.0
"2021-04-27 04:36:00","-0.8","-1.9",0.0,0.0,1012.0
"2021-04-27 04:37:00","-0.8","-1.9",0.0,0.0,1012.0
"2021-04-27 04:38:00","-0.8","-1.9",0.0,0.0,1011.9
"2021-04-27 04:39:00","-0.8","-1.9",0.0,0.0,1011.9
"2021-04-27 04:40:00","-0.9","-2.0",0.0,0.0,1011.9
"2021-04-27 04:41:00","-0.9","-2.0",0.0,0.0,1012.0
"2021-04-27 04:42:00","-0.9","-2.0",0.0,0.0,1011.9
"2021-04-27 04:43:00","-0.9","-2.0",0.0,0.0,1011.9
"2021-04-27 04:44:00","-0.9","-2.0",0.0,0.0,1011.9
"2021-04-27 04:45:00","-0.9","-2.0",0.0,0.0,1011.9
"2021-04-27 04:46:00","-1.0","-2.1",0.0,0.0,1011.9
"2021-04-27 04:47:00","-1.0","-2.1",0.0,0.0,1011.9
"2021-04-27 04:48:00","-1.1","-2.2",0.0,0.0,1011.9
"2021-04-27 04:49:00","-1.1","-2.2",0.0,0.0,1011.9
"2021-04-27 04:50:00","-1.1","-2.2",0.0,0.0,1011.9
"2021-04-27 04:51:00","-1.1","-2.2",0.0,0.0,1011.9
"2021-04-27 04:52:00","-1.1","-2.2",0.0,0.0,1011.8
"2021-04-27 04:53:00","-1.1","-2.2",0.0,0.0,1011.8
"2021-04-27 04:54:00","-1.1","-2.2",0.0,0.0,1011.8
"2021-04-27 04:55:00","-1.1","-2.1",0.0,0.0,1011.7
"2021-04-27 04:56:00","-1.0","-2.0",0.0,0.0,1011.7
"2021-04-27 04:57:00","-1.1","-2.1",0.0,0.0,1011.7
"2021-04-27 04:58:00","-1.0","-2.0",0.0,0.0,1011.7
"2021-04-27 04:59:00","-1.0","-2.0",0.0,0.0,1011.7
"2021-04-27 05:00:00","-1.0","-2.0",0.0,0.0,1011.7
"2021-04-27 05:01:00","-1.0","-2.0",0.0,0.0,1011.7
"2021-04-27 05:02:00","-1.1","-2.2",0.0,0.0,1011.7
"2021-04-27 05:03:00","-1.1","-2.2",0.0,0.0,1011.7
"2021-04-27 05:04:00","-1.1","-2.2",0.0,0.0,1011.6
"2021-04-27 05:05:00","-1.1","-2.2",0.0,0.0,1011.6
"2021-04-27 05:06:00","-1.1","-2.1",0.0,0.0,1011.6
"2021-04-27 05:07:00","-1.1","-2.1",0.0,0.0,1011.6
"2021-04-27 05:08:00","-1.1","-2.2",0.0,0.0,1011.6
"2021-04-27 05:09:00","-1.1","-2.2",0.0,0.0,1011.6
"2021-04-27 05:10:00","-1.2","-2.3",0.0,0.0,1011.6
"2021-04-27 05:11:00","-1.2","-2.2",0.0,0.0,1011.6
"2021-04-27 05:12:00","-1.2","-2.3",0.0,0.0,1011.6
"2021-04-27 05:13:00","-1.2","-2.3",0.0,0.0,1011.6
"2021-04-27 05:14:00","-1.2","-2.3",0.0,0.0,1011.5
"2021-04-27 05:15:00","-1.2","-2.3",0.0,0.0,1011.5
"2021-04-27 05:16:00","-1.2","-2.3",0.0,0.0,1011.5
"2021-04-27 05:17:00","-1.3","-2.4",0.0,0.0,1011.5
"2021-04-27 05:18:00","-1.3","-2.4",0.0,0.0,1011.5
"2021-04-27 05:19:00","-1.3","-2.4",0.0,0.0,1011.6
"2021-04-27 05:20:00","-1.3","-2.4",0.0,0.0,1011.5
"2021-04-27 05:21:00","-1.3","-2.4",0.0,0.0,1011.5
"2021-04-27 05:22:00","-1.3","-2.4",0.0,0.0,1011.5
"2021-04-27 05:23:00","-1.3","-2.4",0.0,0.0,1011.5
"2021-04-27 05:24:00","-1.2","-2.2",0.0,0.0,1011.5
"2021-04-27 05:25:00","-1.2","-2.2",0.0,0.0,1011.5
"2021-04-27 05:26:00","-1.3","-2.4",0.0,0.0,1011.5
"2021-04-27 05:27:00","-1.3","-2.4",0.0,0.0,1011.5
"2021-04-27 05:28:00","-1.3","-2.4",0.0,0.0,1011.5
"2021-04-27 05:29:00","-1.3","-2.4",0.0,0.0,1011.5
"2021-04-27 05:30:00","-1.3","-2.4",0.0,0.0,1011.5
"2021-04-27 05:31:00","-1.3","-2.4",0.0,0.0,1011.5
"2021-04-27 05:32:00","-1.3","-2.3",0.0,0.0,1011.5
"2021-04-27 05:33:00","-1.3","-2.3",0.0,0.0,1011.5
"2021-04-27 05:34:00","-1.3","-2.4",0.0,0.0,1011.5
"2021-04-27 05:35:00","-1.4","-2.5",0.0,0.0,1011.4
"2021-04-27 05:36:00","-1.4","-2.5",0.0,0.0,1011.4
"2021-04-27 05:37:00","-1.3","-2.3",0.0,0.0,1011.4
"2021-04-27 05:38:00","-1.3","-2.3",0.0,0.0,1011.4
"2021-04-27 05:39:00","-1.3","-2.3",0.0,0.0,1011.4
"2021-04-27 05:40:00","-1.3","-2.4",0.0,0.0,1011.4
"2021-04-27 05:41:00","-1.3","-2.4",0.0,0.0,1011.4
"2021-04-27 05:42:00","-1.4","-2.5",0.0,0.0,1011.3
"2021-04-27 05:43:00","-1.4","-2.5",0.0,0.0,1011.4
"2021-04-27 05:44:00","-1.3","-2.4",0.0,0.0,1011.3
"2021-04-27 05:45:00","-1.3","-2.3",0.0,0.0,1011.4
"2021-04-27 05:46:00","-1.3","-2.3",0.0,0.0,1011.4
"2021-04-27 05:47:00","-1.2","-2.2",0.0,0.0,1011.4
"2021-04-27 05:48:00","-1.3","-2.4",0.0,0.0,1011.4
"2021-04-27 05:49:00","-1.3","-2.4",0.0,0.0,1011.3
"2021-04-27 05:50:00","-1.3","-2.4",0.0,0.0,1011.4
"2021-04-27 05:51:00","-1.4","-2.5",0.0,0.0,1011.4
"2021-04-27 05:52:00","-1.4","-2.5",0.0,0.0,1011.3
"2021-04-27 05:53:00","-1.4","-2.5",0.0,0.0,1011.3
"2021-04-27 05:54:00","-1.4","-2.5",0.0,0.0,1011.3
"2021-04-27 05:55:00","-1.4","-2.5",0.0,0.0,1011.4
"2021-04-27 05:56:00","-1.4","-2.4",0.0,0.0,1011.3
"2021-04-27 05:57:00","-1.4","-2.4",0.0,0.0,1011.3
"2021-04-27 05:58:00","-1.3","-2.3",0.0,0.0,1011.3
"2021-04-27 05:59:00","-1.3","-2.3",0.0,0.0,1011.3
"2021-04-27 06:00:00","-1.3","-2.3",0.0,0.0,1011.3
"2021-04-27 06:01:00","-1.3","-2.3",0.0,0.0,1011.2
"2021-04-27 06:02:00","-1.3","-2.3",0.0,0.0,1011.3
"2021-04-27 06:03:00","-1.3","-2.4",0.0,0.0,1011.2
"2021-04-27 06:04:00","-1.4","-2.5",0.0,0.0,1011.3
"2021-04-27 06:05:00","-1.4","-2.5",0.0,0.0,1011.2
"2021-04-27 06:06:00","-1.4","-2.5",0.0,0.0,1011.3
"2021-04-27 06:07:00","-1.4","-2.5",0.0,0.0,1011.2
"2021-04-27 06:08:00","-1.4","-2.5",0.0,0.0,1011.3
"2021-04-27 06:09:00","-1.4","-2.5",0.0,0.0,1011.2
"2021-04-27 06:10:00","-1.4","-2.5",0.0,0.0,1011.3
"2021-04-27 06:11:00","-1.4","-2.5",0.0,0.0,1011.2
"2021-04-27 06:12:00","-1.4","-2.5",0.0,0.0,1011.3
"2021-04-27 06:13:00","-1.5","-2.6",0.0,0.0,1011.2
"2021-04-27 06:14:00","-1.4","-2.5",0.0,0.0,1011.3
"2021-04-27 06:15:00","-1.5","-2.6",0.0,0.0,1011.3
"2021-04-27 06:16:00","-1.4","-2.5",0.0,0.0,1011.3
"2021-04-27 06:17:00","-1.4","-2.4",0.0,0.0,1011.3
"2021-04-27 06:18:00","-1.3","-2.3",0.0,0.0,1011.4
"2021-04-27 06:19:00","-1.3","-2.3",0.0,0.0,1011.3
"2021-04-27 06:20:00","-1.3","-2.3",0.0,0.0,1011.3
"2021-04-27 06:21:00","-1.3","-2.3",0.0,0.0,1011.3
"2021-04-27 06:22:00","-1.3","-2.3",0.0,0.0,1011.3
"2021-04-27 06:23:00","-1.3","-2.3",0.0,0.0,1011.3
"2021-04-27 06:24:00","-1.3","-2.3",0.0,0.0,1011.3
"2021-04-27 06:25:00","-1.3","-2.3",0.0,0.0,1011.3
"2021-04-27 06:26:00","-1.2","-2.2",0.0,0.0,1011.4
"2021-04-27 06:27:00","-1.2","-2.2",0.0,0.0,1011.4
"2021-04-27 06:28:00","-1.2","-2.2",0.0,0.0,1011.4
"2021-04-27 06:29:00","-1.1","-2.1",0.0,0.0,1011.4
"2021-04-27 06:30:00","-1.1","-2.1",0.0,0.0,1011.4
"2021-04-27 06:31:00","-1.0","-2.0",0.0,0.0,1011.4
"2021-04-27 06:32:00","-0.9","-1.9",0.0,0.0,1011.4
"2021-04-27 06:33:00","-0.9","-1.9",0.0,0.0,1011.4
"2021-04-27 06:34:00","-0.9","-1.9",0.0,0.0,1011.4
"2021-04-27 06:35:00","-0.8","-1.8",0.0,0.0,1011.4
"2021-04-27 06:36:00","-0.8","-1.8",0.0,0.0,1011.4
"2021-04-27 06:37:00","-0.8","-1.8",0.0,0.0,1011.4
"2021-04-27 06:38:00","-0.7","-1.7",0.0,0.0,1011.4
"2021-04-27 06:39:00","-0.7","-1.7",0.0,0.0,1011.4
"2021-04-27 06:40:00","-0.6","-1.6",0.0,0.0,1011.4
"2021-04-27 06:41:00","-0.5","-1.5",0.0,0.0,1011.4
"2021-04-27 06:42:00","-0.5","-1.5",0.0,0.0,1011.4
"2021-04-27 06:43:00","-0.4","-1.4",0.0,0.0,1011.4
"2021-04-27 06:44:00","-0.4","-1.4",0.0,0.0,1011.3
"2021-04-27 06:45:00","-0.4","-1.4",0.0,0.0,1011.3
"2021-04-27 06:46:00","-0.3","-1.3",0.0,0.0,1011.3
"2021-04-27 06:47:00","-0.3","-1.3",0.0,0.0,1011.3
"2021-04-27 06:48:00","-0.3","-1.3",0.0,0.0,1011.3
"2021-04-27 06:49:00","-0.2","-1.2",0.0,0.0,1011.3
"2021-04-27 06:50:00","-0.2","-1.2",0.0,0.0,1011.3
"2021-04-27 06:51:00","-0.2","-1.2",0.0,0.0,1011.3
"2021-04-27 06:52:00","-0.1","-1.1",0.0,0.0,1011.3
"2021-04-27 06:53:00","-0.1","-1.1",0.0,0.0,1011.3
"2021-04-27 06:54:00","-0.1","-1.1",0.0,0.0,1011.3
"2021-04-27 06:55:00",0.0,"-1.0",0.0,0.0,1011.3
"2021-04-27 06:56:00",0.1,"-0.9",0.0,0.0,1011.2
"2021-04-27 06:57:00",0.0,"-1.0",0.0,0.0,1011.2
"2021-04-27 06:58:00",0.1,"-0.9",0.0,0.0,1011.2
"2021-04-27 06:59:00",0.1,"-0.9",0.0,0.0,1011.1
"2021-04-27 07:00:00",0.1,"-0.9",0.0,0.0,1011.2
"2021-04-27 07:01:00",0.1,"-0.9",0.0,0.0,1011.1
"2021-04-27 07:02:00",0.1,"-1.0",0.0,0.0,1011.1
"2021-04-27 07:03:00",0.1,"-1.0",0.0,0.0,1011.1
"2021-04-27 07:04:00",0.1,"-1.0",0.0,0.0,1011.1
"2021-04-27 07:05:00",0.1,"-1.0",0.0,0.0,1011.1
"2021-04-27 07:06:00",0.1,"-1.0",0.0,0.0,1011.1
"2021-04-27 07:07:00",0.1,"-1.0",0.0,0.0,1011.1
"2021-04-27 07:08:00",0.1,"-1.0",0.0,0.0,1011.1
"2021-04-27 07:09:00",0.1,"-1.0",0.0,0.0,1011.1
"2021-04-27 07:10:00",0.1,"-1.0",0.0,0.0,1011.1
"2021-04-27 07:11:00",0.1,"-1.0",0.0,0.0,1011.1
"2021-04-27 07:12:00",0.1,"-1.0",0.0,0.0,1011.1
"2021-04-27 07:13:00",0.2,"-0.9",0.0,0.0,1011.0
"2021-04-27 07:14:00",0.2,"-0.9",0.0,0.0,1011.0
"2021-04-27 07:15:00",0.3,"-0.8",0.0,0.0,1011.1
"2021-04-27 07:16:00",0.3,"-0.7",0.0,0.0,1011.1
"2021-04-27 07:17:00",0.4,"-0.6",0.0,0.0,1011.1
"2021-04-27 07:18:00",0.5,"-0.5",0.0,0.0,1011.1
"2021-04-27 07:19:00",0.5,"-0.6",0.0,0.0,1011.0
"2021-04-27 07:20:00",0.6,"-0.4",0.0,0.0,1011.0
"2021-04-27 07:21:00",0.7,"-0.3",0.0,0.0,1011.0
"2021-04-27 07:22:00",0.8,"-0.2",0.0,0.0,1011.0
"2021-04-27 07:23:00",0.8,"-0.4",0.0,0.0,1011.0
"2021-04-27 07:24:00",0.9,"-0.3",0.0,0.0,1011.0
"2021-04-27 07:25:00",0.9,"-0.3",0.0,0.0,1011.0
"2021-04-27 07:26:00",0.9,"-0.3",0.0,0.0,1011.0
"2021-04-27 07:27:00",1.1,"-0.1",0.0,0.0,1011.0
"2021-04-27 07:28:00",1.2,0.0,0.0,0.0,1010.9
"2021-04-27 07:29:00",1.2,0.0,0.0,0.0,1010.9
"2021-04-27 07:30:00",1.3,0.1,0.0,0.0,1010.9
"2021-04-27 07:31:00",1.4,0.2,0.0,0.0,1010.9
"2021-04-27 07:32:00",1.4,0.1,0.0,0.0,1010.9
"2021-04-27 07:33:00",1.5,0.2,0.0,0.0,1010.9
"2021-04-27 07:34:00",1.5,0.2,0.0,0.0,1010.9
"2021-04-27 07:35:00",1.6,0.3,0.0,0.0,1010.8
"2021-04-27 07:36:00",1.6,0.3,0.0,0.0,1010.9
"2021-04-27 07:37:00",1.6,0.3,0.0,0.0,1010.9
"2021-04-27 07:38:00",1.7,0.4,0.0,0.0,1010.9
"2021-04-27 07:39:00",1.8,0.5,0.0,0.0,1010.8
"2021-04-27 07:40:00",1.8,0.5,0.0,0.0,1010.9
"2021-04-27 07:41:00",1.9,0.6,0.0,0.0,1010.9
"2021-04-27 07:42:00",2.0,0.8,0.0,0.0,1010.9
"2021-04-27 07:43:00",2.1,0.9,0.0,0.0,1010.8
"2021-04-27 07:44:00",2.3,1.1,0.0,0.0,1010.8
"2021-04-27 07:45:00",2.4,1.2,0.0,0.0,1010.8
"2021-04-27 07:46:00",2.5,1.3,0.0,0.5,1010.8
"2021-04-27 07:47:00",2.7,1.5,0.0,0.5,1010.8
"2021-04-27 07:48:00",2.9,1.7,0.0,0.5,1010.7
"2021-04-27 07:49:00",3.3,2.1,0.0,0.5,1010.7
"2021-04-27 07:50:00",3.6,2.3,0.0,0.5,1010.7
"2021-04-27 07:51:00",3.9,2.4,0.0,0.5,1010.7
"2021-04-27 07:52:00",4.1,2.4,0.0,0.5,1010.7
"2021-04-27 07:53:00",4.3,2.5,0.0,0.5,1010.7
"2021-04-27 07:54:00",4.5,2.7,0.0,0.5,1010.7
"2021-04-27 07:55:00",4.6,2.6,0.0,0.5,1010.7
"2021-04-27 07:56:00",4.7,2.7,0.0,0.5,1010.6
"2021-04-27 07:57:00",4.8,2.7,0.0,0.5,1010.7
"2021-04-27 07:58:00",4.9,2.8,0.0,0.5,1010.6
"2021-04-27 07:59:00",5.1,3.1,0.0,0.5,1010.6
"2021-04-27 08:00:00",5.2,3.2,0.0,0.5,1010.6
"2021-04-27 08:01:00",5.2,3.0,0.0,0.5,1010.6
"2021-04-27 08:02:00",5.3,3.0,0.0,0.5,1010.6
"2021-04-27 08:03:00",5.4,3.2,0.0,0.5,1010.6
"2021-04-27 08:04:00",5.4,3.2,0.0,0.5,1010.6
"2021-04-27 08:05:00",5.5,3.2,0.0,0.5,1010.6
"2021-04-27 08:06:00",5.5,3.0,0.0,0.5,1010.6
"2021-04-27 08:07:00",5.6,3.1,0.0,0.5,1010.6
"2021-04-27 08:08:00",5.6,3.1,0.0,0.5,1010.6
"2021-04-27 08:09:00",5.5,2.8,0.0,0.5,1010.6